Volver al catálogo

FENGYUN 1C DEB

ActivoSSO
NORAD 30334·DEBRIS·🇨🇳 China

Lanzado May 10, 1999 desde Taiyuan Satellite Launch Center

Loading…

Próximos Pases (próximas 24 horas)

TLE

ActualizadoSource: Space-Track

Época: Sep 14, 2026, 06:05 UTC

1 30334U 99025AAV 26257.25369051  .00001340  00000-0  97494-3 0  9995
2 30334  99.0227 354.9110 0140448 309.5262  75.3798 13.93411350990574

Sigue FENGYUN 1C DEB en tiempo real con AllMySat

Download on the App Store